Language: 


Des rapports , des résumés tant et plus, au choix de chacun....


Données statistiques de la station
Quotidien Rapport Février 5, 2018 Unités:  Anglais    Métrique   les deux
« Précédent Jour
Suivant Jour »
Quotidien Hebdomadaire Mensuel Annuel Actuel
  Haut: Bas: Moyen:
Température: TemperatureC °F 0.0 °F 2.2 °F
Pt de rosée: DewpointC °F -3.0 °F -0.1 °F
Humidité: Humidity % 0 % 81 %
Vitesse du vent: WindSpeedKMH mph 0.0 mph 12.2 mph
Rafales: WindSpeedGustKMH mph - -
Vent:- - ENE
Pression: PressurehPa in 0.0 in -
Précipitation: 0.0 in    
Historical Graphs
 
 
Données statistiques pour Février 5, 2018
Heure Température Point de rosée Pression Vent Vitesse du vent Refales Humidité Pluie (taux horaire)
TemperatureC °F DewpointC °F PressurehPa in Calm     Humidity % HourlyPrecipMM in
00:04 2.3 °F 1.0 °F 1024.9 in NE 11.9 mph 14.0 mph 90 % 0.0 in
00:09 2.3 °F 1.0 °F 1024.9 in NE 7.9 mph 15.1 mph 90 % 0.0 in
00:14 2.3 °F 1.0 °F 1023.9 in NE 16.9 mph 16.9 mph 90 % 0.0 in
00:19 2.3 °F 1.0 °F 1023.9 in NE 13.7 mph 16.9 mph 90 % 0.0 in
00:24 2.3 °F 1.0 °F 1023.9 in NE 11.1 mph 15.8 mph 90 % 0.0 in
00:29 2.3 °F 1.0 °F 1023.9 in NE 13.0 mph 13.7 mph 90 % 0.0 in
00:34 2.3 °F 1.0 °F 1023.9 in NE 13.0 mph 13.7 mph 90 % 0.0 in
00:39 2.3 °F 1.0 °F 1023.9 in NE 11.9 mph 15.4 mph 90 % 0.0 in
00:44 2.3 °F 1.0 °F 1024.9 in NE 13.7 mph 15.8 mph 90 % 0.0 in
00:49 2.3 °F 1.0 °F 1024.9 in NNE 16.6 mph 19.5 mph 90 % 0.0 in
00:54 2.3 °F 1.0 °F 1024.9 in NE 14.0 mph 20.6 mph 90 % 0.0 in
00:59 2.3 °F 1.0 °F 1024.9 in ENE 10.1 mph 20.6 mph 90 % 0.0 in
01:04 2.3 °F 1.0 °F 1024.9 in ENE 11.9 mph 16.9 mph 90 % 0.0 in
01:09 2.3 °F 1.0 °F 1024.9 in NE 10.5 mph 16.6 mph 90 % 0.0 in
01:14 2.3 °F 1.0 °F 1023.9 in ENE 11.6 mph 15.4 mph 90 % 0.0 in
01:19 2.3 °F 1.0 °F 1023.9 in ENE 15.4 mph 15.4 mph 90 % 0.0 in
01:24 2.3 °F 1.0 °F 1023.9 in NNE 13.0 mph 16.6 mph 90 % 0.0 in
01:29 2.3 °F 1.0 °F 1023.9 in NE 9.7 mph 16.6 mph 90 % 0.0 in
01:34 2.3 °F 1.0 °F 1023.9 in ENE 12.6 mph 16.3 mph 90 % 0.0 in
01:39 2.3 °F 1.0 °F 1023.9 in ENE 12.6 mph 16.3 mph 90 % 0.0 in
01:44 2.3 °F 1.0 °F 1022.9 in NE 13.0 mph 13.7 mph 90 % 0.0 in
01:49 2.3 °F 1.0 °F 1022.9 in NE 10.1 mph 13.7 mph 90 % 0.0 in
01:54 2.3 °F 1.0 °F 1022.9 in ENE 9.3 mph 13.7 mph 90 % 0.0 in
01:59 2.3 °F 1.0 °F 1022.9 in NE 9.3 mph 13.0 mph 90 % 0.0 in
02:04 2.3 °F 1.0 °F 1022.9 in NNE 12.2 mph 14.0 mph 90 % 0.0 in
02:09 2.3 °F 1.0 °F 1022.9 in NE 12.6 mph 20.6 mph 90 % 0.0 in
02:14 2.3 °F 1.0 °F 1022.9 in ENE 9.3 mph 20.6 mph 90 % 0.0 in
02:20 2.3 °F 1.0 °F 1022.9 in ENE 12.2 mph 16.3 mph 90 % 0.0 in
02:25 2.3 °F 1.0 °F 1022.9 in NNE 6.9 mph 13.7 mph 90 % 0.0 in
02:30 2.3 °F 1.0 °F 1022.9 in ENE 6.9 mph 9.0 mph 90 % 0.0 in
02:35 2.3 °F 1.0 °F 1022.9 in Calm   10.1 mph 90 % 0.0 in
02:40 2.3 °F 1.0 °F 1022.9 in NE 2.6 mph 10.1 mph 90 % 0.0 in
02:45 2.3 °F 1.0 °F 1022.9 in NE 5.0 mph 7.9 mph 90 % 0.0 in
02:50 2.3 °F 1.0 °F 1022.9 in ENE 7.2 mph 8.7 mph 90 % 0.0 in
02:55 2.3 °F 1.0 °F 1022.9 in Calm   8.7 mph 90 % 0.0 in
03:00 2.3 °F 1.0 °F 1022.9 in NE 6.9 mph 11.9 mph 90 % 0.0 in
03:05 2.3 °F 1.0 °F 1022.9 in NE 6.9 mph 11.9 mph 90 % 0.0 in
03:10 2.3 °F 1.0 °F 1022.9 in NE 8.7 mph 9.3 mph 90 % 0.0 in
03:15 2.3 °F 1.0 °F 1022.9 in NE 7.9 mph 9.0 mph 90 % 0.0 in
03:20 2.3 °F 1.0 °F 1022.9 in NNE 8.7 mph 9.7 mph 90 % 0.0 in
03:25 2.3 °F 1.0 °F 1022.9 in ENE 11.6 mph 14.8 mph 90 % 0.0 in
03:30 2.3 °F 1.0 °F 1023.9 in NNE 10.5 mph 14.8 mph 90 % 0.0 in
03:35 2.3 °F 1.0 °F 1023.9 in NE 10.1 mph 13.0 mph 90 % 0.0 in
03:40 2.3 °F 1.0 °F 1023.9 in NE 9.3 mph 14.0 mph 90 % 0.0 in
03:45 2.3 °F 1.0 °F 1022.9 in ENE 12.6 mph 15.1 mph 90 % 0.0 in
03:50 2.3 °F 1.0 °F 1022.9 in ENE 15.4 mph 15.4 mph 90 % 0.0 in
03:55 2.3 °F 1.0 °F 1022.9 in ENE 9.3 mph 15.4 mph 90 % 0.0 in
04:00 2.3 °F 1.0 °F 1022.9 in ENE 15.1 mph 15.4 mph 90 % 0.0 in
04:05 2.3 °F 1.0 °F 1022.9 in ENE 12.2 mph 15.1 mph 90 % 0.0 in
04:11 2.3 °F 1.0 °F 1022.9 in ENE 11.1 mph 14.0 mph 90 % 0.0 in
04:16 2.3 °F 1.0 °F 1022.9 in ENE 12.6 mph 13.0 mph 90 % 0.0 in
04:21 2.3 °F 1.0 °F 1022.9 in NE 14.0 mph 14.3 mph 90 % 0.0 in
04:26 2.3 °F 1.0 °F 1022.9 in ENE 9.0 mph 14.3 mph 90 % 0.0 in
04:31 2.3 °F 1.0 °F 1022.9 in ENE 10.5 mph 14.0 mph 90 % 0.0 in
04:36 2.3 °F 1.0 °F 1022.9 in ENE 12.2 mph 13.7 mph 90 % 0.0 in
04:41 2.3 °F 1.0 °F 1022.9 in NE 9.3 mph 16.3 mph 90 % 0.0 in
04:46 2.3 °F 1.0 °F 1022.9 in ENE 13.7 mph 16.9 mph 90 % 0.0 in
04:51 2.3 °F 1.0 °F 1022.9 in ENE 15.4 mph 16.9 mph 90 % 0.0 in
04:56 2.3 °F 1.0 °F 1022.9 in ENE 11.9 mph 15.4 mph 90 % 0.0 in
05:01 2.3 °F 1.0 °F 1022.9 in NE 13.0 mph 13.7 mph 90 % 0.0 in
05:06 2.3 °F 1.0 °F 1022.9 in ENE 12.6 mph 13.0 mph 90 % 0.0 in
05:11 2.3 °F 1.0 °F 1022.9 in NE 10.1 mph 14.0 mph 90 % 0.0 in
05:16 2.3 °F 1.0 °F 1022.9 in NE 12.6 mph 14.0 mph 90 % 0.0 in
05:21 2.3 °F 1.0 °F 1022.9 in ENE 11.6 mph 13.0 mph 90 % 0.0 in
05:26 2.3 °F 1.0 °F 1022.9 in NE 10.5 mph 14.3 mph 90 % 0.0 in
05:31 2.3 °F 1.0 °F 1022.9 in ENE 12.2 mph 14.3 mph 90 % 0.0 in
05:36 2.3 °F 1.0 °F 1022.9 in NE 10.5 mph 14.0 mph 90 % 0.0 in
05:41 2.3 °F 1.0 °F 1022.9 in NE 8.7 mph 14.0 mph 90 % 0.0 in
05:46 2.3 °F 1.0 °F 1022.9 in ENE 11.6 mph 13.0 mph 90 % 0.0 in
05:51 2.3 °F 1.0 °F 1022.9 in NE 10.5 mph 14.0 mph 90 % 0.0 in
05:56 2.3 °F 1.0 °F 1022.9 in NE 10.5 mph 14.0 mph 90 % 0.0 in
06:01 2.3 °F 1.0 °F 1022.9 in NE 13.7 mph 13.7 mph 90 % 0.0 in
06:06 2.3 °F 1.0 °F 1022.9 in NE 10.1 mph 13.7 mph 90 % 0.0 in
06:12 2.3 °F 1.0 °F 1022.9 in NE 9.0 mph 10.8 mph 90 % 0.0 in
06:17 2.3 °F 1.0 °F 1021.9 in NE 13.7 mph 15.4 mph 90 % 0.0 in
06:22 2.3 °F 1.0 °F 1021.9 in NE 12.6 mph 15.8 mph 90 % 0.0 in
06:27 2.3 °F 1.0 °F 1021.9 in NNE 11.9 mph 15.8 mph 90 % 0.0 in
06:32 2.3 °F 1.0 °F 1022.9 in NE 9.0 mph 13.7 mph 90 % 0.0 in
06:37 2.3 °F 1.0 °F 1022.9 in NNE 12.2 mph 12.2 mph 90 % 0.0 in
06:42 2.3 °F 1.0 °F 1022.9 in NNE 12.6 mph 13.7 mph 90 % 0.0 in
06:47 2.3 °F 1.0 °F 1022.9 in NE 10.5 mph 13.7 mph 90 % 0.0 in
06:52 2.3 °F 1.0 °F 1022.9 in NE 11.9 mph 15.4 mph 90 % 0.0 in
06:57 2.3 °F 1.0 °F 1022.9 in NE 9.7 mph 15.4 mph 90 % 0.0 in
07:02 2.3 °F 1.0 °F 1022.9 in NE 9.7 mph 15.4 mph 90 % 0.0 in
07:07 2.3 °F 1.0 °F 1022.9 in NE 9.3 mph 9.3 mph 90 % 0.0 in
07:12 2.3 °F 1.0 °F 1022.9 in NE 9.3 mph 9.3 mph 90 % 0.0 in
07:17 2.3 °F 1.0 °F 1022.9 in NNE 9.3 mph 9.3 mph 90 % 0.0 in
07:22 2.3 °F 1.0 °F 1022.9 in NNE 9.3 mph 9.3 mph 90 % 0.0 in
07:27 2.3 °F 1.0 °F 1022.9 in NNE 9.3 mph 9.3 mph 90 % 0.0 in
07:32 2.3 °F 1.0 °F 1023.9 in NNE 9.7 mph 11.6 mph 90 % 0.0 in
07:37 2.3 °F 1.0 °F 1023.9 in NNE 12.6 mph 13.7 mph 90 % 0.0 in
07:42 2.3 °F 1.0 °F 1023.9 in NNE 11.9 mph 15.4 mph 90 % 0.0 in
07:47 2.3 °F 1.0 °F 1023.9 in NE 12.6 mph 16.9 mph 90 % 0.0 in
07:52 2.3 °F 1.0 °F 1023.9 in NE 12.2 mph 16.9 mph 90 % 0.0 in
07:57 2.3 °F 1.0 °F 1023.9 in NE 11.6 mph 17.2 mph 90 % 0.0 in
08:02 2.3 °F 1.0 °F 1023.9 in NNE 9.3 mph 17.7 mph 90 % 0.0 in
08:07 2.3 °F 1.0 °F 1023.9 in NE 12.2 mph 17.7 mph 90 % 0.0 in
08:12 2.3 °F 1.0 °F 1023.9 in NE 17.7 mph 19.8 mph 90 % 0.0 in
08:17 2.3 °F 1.0 °F 1023.9 in NE 15.8 mph 20.1 mph 90 % 0.0 in
08:22 2.3 °F 1.0 °F 1023.9 in NNE 15.8 mph 20.1 mph 90 % 0.0 in
08:27 2.3 °F 1.0 °F 1023.9 in ENE 10.1 mph 20.6 mph 90 % 0.0 in
08:32 2.3 °F 1.0 °F 1023.9 in NE 12.2 mph 20.6 mph 90 % 0.0 in
08:37 2.3 °F 1.0 °F 1023.9 in NE 15.8 mph 20.1 mph 90 % 0.0 in
08:42 2.3 °F 1.0 °F 1023.9 in ENE 14.0 mph 20.1 mph 90 % 0.0 in
08:47 2.3 °F 1.0 °F 1023.9 in ENE 15.8 mph 19.8 mph 90 % 0.0 in
08:52 2.3 °F 1.0 °F 1023.9 in ENE 13.0 mph 17.7 mph 90 % 0.0 in
09:00 2.3 °F 1.0 °F 1023.9 in NNE 12.2 mph 18.3 mph 90 % 0.0 in
09:05 2.3 °F 1.0 °F 1023.9 in ENE 14.0 mph 18.3 mph 90 % 0.0 in
09:10 2.3 °F 1.0 °F 1023.9 in NE 9.3 mph 19.1 mph 90 % 0.0 in
09:15 2.3 °F 1.0 °F 1023.9 in ENE 11.9 mph 19.1 mph 90 % 0.0 in
09:20 2.3 °F 1.0 °F 1023.9 in ENE 9.3 mph 16.3 mph 90 % 0.0 in
09:25 2.3 °F 1.0 °F 1023.9 in NE 9.3 mph 16.6 mph 90 % 0.0 in
09:30 2.3 °F 1.0 °F 1023.9 in NE 13.7 mph 16.6 mph 90 % 0.0 in
09:35 2.3 °F 1.0 °F 1023.9 in ENE 20.1 mph 23.8 mph 90 % 0.0 in
09:40 2.3 °F 1.0 °F 1023.9 in ENE 16.6 mph 23.8 mph 90 % 0.0 in
09:45 2.3 °F 1.0 °F 1023.9 in East 16.3 mph 23.8 mph 90 % 0.0 in
09:51 2.3 °F 1.0 °F 1023.9 in ENE 28.5 mph 28.5 mph 90 % 0.0 in
09:56 2.3 °F 1.0 °F 1023.9 in ENE 28.5 mph 28.5 mph 90 % 0.0 in
10:01 2.3 °F 1.0 °F 1023.9 in ENE 13.7 mph 13.7 mph 90 % 0.0 in
10:06 2.3 °F 1.0 °F 1023.9 in ENE 17.2 mph 23.0 mph 90 % 0.0 in
10:11 2.3 °F 1.0 °F 1023.9 in NE 16.6 mph 23.0 mph 90 % 0.0 in
10:16 2.3 °F 1.0 °F 1023.9 in NE 14.0 mph 20.1 mph 90 % 0.0 in
10:21 2.3 °F 1.0 °F 1023.9 in ENE 14.0 mph 23.3 mph 90 % 0.0 in
10:26 2.3 °F 1.0 °F 1023.9 in ENE 15.8 mph 23.3 mph 90 % 0.0 in
10:31 0.0 °F 1.0 °F 0.0 in ENE 13.7 mph 19.5 mph 0 % 0.0 in
10:36 0.0 °F 1.0 °F 1023.9 in ENE 13.7 mph 19.5 mph 0 % 0.0 in
10:41 0.0 °F 1.0 °F 1023.9 in NE 9.3 mph 14.3 mph 0 % 0.0 in
10:46 0.0 °F 1.0 °F 1023.9 in NE 10.5 mph 12.2 mph 0 % 0.0 in
10:51 0.0 °F 1.0 °F 1023.9 in ENE 9.3 mph 10.5 mph 0 % 0.0 in
10:56 0.0 °F 1.0 °F 1023.9 in East 12.6 mph 15.4 mph 0 % 0.0 in
11:01 0.0 °F 1.0 °F 1022.9 in NE 10.5 mph 15.4 mph 0 % 0.0 in
11:06 4.6 °F -3.0 °F 1022.9 in NE 10.5 mph 13.0 mph 57 % 0.0 in
11:11 3.6 °F -3.0 °F 1022.9 in NE 10.5 mph 10.5 mph 61 % 0.0 in
11:16 3.0 °F -2.0 °F 1022.9 in NE 10.5 mph 10.5 mph 67 % 0.0 in
11:21 2.7 °F -2.0 °F 1022.9 in NE 10.5 mph 10.5 mph 70 % 0.0 in
11:27 2.5 °F -1.0 °F 1022.9 in NE 10.5 mph 10.5 mph 73 % 0.0 in
11:32 2.4 °F -1.0 °F 1022.9 in NE 10.5 mph 10.5 mph 74 % 0.0 in
11:43 2.5 °F -1.0 °F 1022.9 in NE 10.5 mph 10.5 mph 77 % 0.0 in
11:48 2.4 °F -1.0 °F 1022.9 in NE 10.5 mph 10.5 mph 77 % 0.0 in
11:53 2.3 °F -1.0 °F 1022.9 in NE 10.5 mph 10.5 mph 77 % 0.0 in
11:58 2.2 °F -1.0 °F 1022.9 in NE 10.5 mph 10.5 mph 77 % 0.0 in
12:03 2.2 °F -1.0 °F 1022.9 in NE 10.5 mph 10.5 mph 78 % 0.0 in
12:08 2.3 °F -1.0 °F 1022.9 in NE 10.5 mph 10.5 mph 78 % 0.0 in
12:13 2.3 °F -1.0 °F 1022.9 in NE 10.5 mph 10.5 mph 77 % 0.0 in
12:18 2.3 °F -1.0 °F 1022.9 in NNE 16.6 mph 16.6 mph 77 % 0.0 in
12:23 2.4 °F -1.0 °F 1022.9 in NNE 16.6 mph 16.6 mph 77 % 0.0 in
12:28 2.6 °F -1.0 °F 1022.9 in NNE 16.6 mph 16.6 mph 77 % 0.0 in
12:33 2.7 °F -1.0 °F 1022.9 in NNE 16.6 mph 16.6 mph 76 % 0.0 in
12:38 2.8 °F -1.0 °F 1022.9 in East 10.5 mph 16.6 mph 76 % 0.0 in
12:43 3.0 °F -1.0 °F 1022.9 in East 10.5 mph 11.9 mph 75 % 0.0 in
12:48 3.0 °F -1.0 °F 1022.9 in East 10.5 mph 10.5 mph 74 % 0.0 in
12:53 3.1 °F -1.0 °F 1022.9 in East 10.5 mph 10.5 mph 75 % 0.0 in
12:58 3.4 °F 0.0 °F 1022.9 in East 10.5 mph 10.5 mph 75 % 0.0 in
13:03 3.5 °F 0.0 °F 1022.9 in East 10.5 mph 10.5 mph 74 % 0.0 in
13:08 3.7 °F 0.0 °F 1022.9 in East 10.5 mph 10.5 mph 74 % 0.0 in
13:13 3.7 °F -1.0 °F 1022.9 in East 10.5 mph 10.5 mph 73 % 0.0 in
13:18 3.7 °F -1.0 °F 1022.9 in East 10.5 mph 10.5 mph 73 % 0.0 in
13:23 3.6 °F -1.0 °F 1022.9 in East 10.5 mph 10.5 mph 72 % 0.0 in
13:28 3.3 °F -1.0 °F 1022.9 in East 10.5 mph 10.5 mph 72 % 0.0 in
13:34 3.3 °F -1.0 °F 1022.9 in East 10.5 mph 10.5 mph 72 % 0.0 in
13:39 3.5 °F 0.0 °F 1022.9 in East 10.5 mph 10.5 mph 74 % 0.0 in
13:44 3.6 °F -1.0 °F 1022.9 in East 10.5 mph 10.5 mph 73 % 0.0 in
13:49 3.7 °F -1.0 °F 1022.9 in East 10.5 mph 10.5 mph 72 % 0.0 in
13:54 3.8 °F 0.0 °F 1022.9 in East 10.5 mph 10.5 mph 74 % 0.0 in
13:59 3.8 °F -1.0 °F 1021.9 in East 10.5 mph 10.5 mph 72 % 0.0 in
14:04 3.7 °F -1.0 °F 1021.9 in East 10.5 mph 10.5 mph 71 % 0.0 in
14:09 3.7 °F -1.0 °F 1021.9 in East 10.5 mph 10.5 mph 72 % 0.0 in
14:14 3.6 °F -1.0 °F 1021.9 in East 10.5 mph 10.5 mph 72 % 0.0 in
14:19 3.8 °F -1.0 °F 1021.9 in East 10.5 mph 10.5 mph 72 % 0.0 in
14:24 3.9 °F -1.0 °F 1021.9 in East 10.5 mph 10.5 mph 71 % 0.0 in
14:29 4.0 °F -1.0 °F 1021.9 in East 10.5 mph 10.5 mph 71 % 0.0 in
14:34 4.2 °F 0.0 °F 1021.9 in East 10.5 mph 10.5 mph 71 % 0.0 in
14:39 4.3 °F -1.0 °F 1021.9 in East 10.5 mph 10.5 mph 70 % 0.0 in
14:44 4.3 °F -1.0 °F 1021.9 in East 10.5 mph 10.5 mph 69 % 0.0 in
14:50 4.3 °F -1.0 °F 1021.9 in East 10.5 mph 10.5 mph 68 % 0.0 in
14:55 4.4 °F -1.0 °F 1021.9 in East 10.5 mph 10.5 mph 67 % 0.0 in
15:00 4.5 °F -1.0 °F 1020.9 in East 10.5 mph 10.5 mph 66 % 0.0 in
15:05 4.3 °F -1.0 °F 1020.9 in NE 21.2 mph 21.2 mph 66 % 0.0 in
15:10 4.1 °F -2.0 °F 1020.9 in NE 21.2 mph 21.2 mph 66 % 0.0 in
15:15 4.1 °F -1.0 °F 1020.9 in NE 21.2 mph 21.2 mph 67 % 0.0 in
15:20 4.1 °F -1.0 °F 1020.9 in NE 21.2 mph 21.2 mph 68 % 0.0 in
15:25 3.9 °F -1.0 °F 1020.9 in NE 21.2 mph 21.2 mph 68 % 0.0 in
15:30 3.7 °F -1.0 °F 1020.9 in NE 16.6 mph 20.6 mph 69 % 0.0 in
15:35 3.7 °F -1.0 °F 1020.9 in NE 16.6 mph 20.6 mph 71 % 0.0 in
15:40 3.8 °F -1.0 °F 1020.9 in NE 16.6 mph 16.6 mph 69 % 0.0 in
15:45 3.9 °F -1.0 °F 1019.9 in NE 16.6 mph 16.6 mph 69 % 0.0 in
15:50 4.0 °F -1.0 °F 1019.9 in NE 16.6 mph 16.6 mph 67 % 0.0 in
15:55 4.1 °F -1.0 °F 1019.9 in NE 16.6 mph 16.6 mph 68 % 0.0 in
16:00 4.2 °F -1.0 °F 1020.9 in NE 16.6 mph 16.6 mph 68 % 0.0 in
16:05 4.3 °F -1.0 °F 1020.9 in NE 16.6 mph 16.6 mph 68 % 0.0 in
16:10 4.4 °F -1.0 °F 1020.9 in NE 16.6 mph 16.6 mph 69 % 0.0 in
16:15 4.4 °F -1.0 °F 1020.9 in NE 16.6 mph 16.6 mph 69 % 0.0 in
16:20 4.4 °F -1.0 °F 1020.9 in NE 16.6 mph 16.6 mph 69 % 0.0 in
16:25 4.3 °F -1.0 °F 1020.9 in NE 16.6 mph 16.6 mph 69 % 0.0 in
16:30 4.3 °F -1.0 °F 1020.9 in NE 16.6 mph 16.6 mph 67 % 0.0 in
16:35 4.1 °F -1.0 °F 1020.9 in NE 16.6 mph 16.6 mph 67 % 0.0 in
16:40 4.0 °F -1.0 °F 1020.9 in ENE 13.7 mph 13.7 mph 67 % 0.0 in
16:45 4.0 °F -1.0 °F 1020.9 in ENE 13.7 mph 13.7 mph 67 % 0.0 in
16:50 3.9 °F -1.0 °F 1020.9 in ENE 13.7 mph 13.7 mph 68 % 0.0 in
16:55 3.8 °F -1.0 °F 1020.9 in ENE 13.7 mph 13.7 mph 69 % 0.0 in
17:00 3.7 °F -1.0 °F 1020.9 in ENE 13.7 mph 13.7 mph 70 % 0.0 in
17:05 3.6 °F -1.0 °F 1020.9 in ENE 13.7 mph 13.7 mph 68 % 0.0 in
17:10 3.4 °F -2.0 °F 1020.9 in ENE 13.7 mph 13.7 mph 67 % 0.0 in
17:15 3.3 °F -2.0 °F 1020.9 in ENE 13.7 mph 13.7 mph 68 % 0.0 in
17:20 3.1 °F -2.0 °F 1020.9 in ENE 13.7 mph 13.7 mph 69 % 0.0 in
17:25 3.0 °F -2.0 °F 1020.9 in ENE 13.7 mph 13.7 mph 70 % 0.0 in
17:30 2.8 °F -1.0 °F 1020.9 in ENE 13.7 mph 13.7 mph 71 % 0.0 in
17:35 2.8 °F -1.0 °F 1020.9 in ENE 13.7 mph 13.7 mph 73 % 0.0 in
17:40 2.7 °F -1.0 °F 1020.9 in ENE 13.7 mph 13.7 mph 73 % 0.0 in
17:45 2.6 °F -1.0 °F 1020.9 in ENE 13.7 mph 13.7 mph 74 % 0.0 in
17:50 2.6 °F -1.0 °F 1020.9 in ENE 13.7 mph 13.7 mph 73 % 0.0 in
17:55 2.5 °F -1.0 °F 1020.9 in ENE 13.7 mph 13.7 mph 73 % 0.0 in
18:00 2.5 °F -1.0 °F 1020.9 in ENE 13.7 mph 13.7 mph 73 % 0.0 in
18:05 2.5 °F -1.0 °F 1020.9 in ENE 13.7 mph 13.7 mph 73 % 0.0 in
18:10 2.4 °F -2.0 °F 1020.9 in ENE 13.7 mph 13.7 mph 73 % 0.0 in
18:16 2.3 °F -1.0 °F 1020.9 in ENE 13.7 mph 13.7 mph 74 % 0.0 in
18:21 2.3 °F -1.0 °F 1020.9 in ENE 13.7 mph 13.7 mph 75 % 0.0 in
18:26 2.1 °F -1.0 °F 1020.9 in ENE 13.7 mph 13.7 mph 75 % 0.0 in
18:31 1.9 °F -2.0 °F 1020.9 in ENE 13.7 mph 13.7 mph 76 % 0.0 in
18:36 1.9 °F -1.0 °F 1020.9 in ENE 13.7 mph 13.7 mph 77 % 0.0 in
18:41 1.9 °F -1.0 °F 1020.9 in ENE 13.7 mph 13.7 mph 78 % 0.0 in
18:46 1.9 °F -1.0 °F 1020.9 in ENE 13.7 mph 13.7 mph 79 % 0.0 in
18:51 1.9 °F -1.0 °F 1020.9 in ENE 13.7 mph 13.7 mph 79 % 0.0 in
18:56 1.9 °F -1.0 °F 1020.9 in ENE 13.7 mph 13.7 mph 79 % 0.0 in
19:01 1.9 °F -1.0 °F 1020.9 in ENE 13.7 mph 13.7 mph 79 % 0.0 in
19:06 1.8 °F -1.0 °F 1020.9 in ENE 13.7 mph 13.7 mph 79 % 0.0 in
19:11 1.9 °F -1.0 °F 1020.9 in ENE 13.7 mph 13.7 mph 79 % 0.0 in
19:16 1.9 °F -1.0 °F 1019.9 in ENE 13.7 mph 13.7 mph 78 % 0.0 in
19:21 1.8 °F -2.0 °F 1019.9 in ENE 13.7 mph 13.7 mph 77 % 0.0 in
19:26 1.8 °F -2.0 °F 1019.9 in ENE 13.7 mph 13.7 mph 77 % 0.0 in
19:31 1.7 °F -2.0 °F 1020.9 in NE 14.8 mph 14.8 mph 77 % 0.0 in
19:36 1.6 °F -2.0 °F 1020.9 in NNE 9.0 mph 14.8 mph 77 % 0.0 in
19:41 1.4 °F -2.0 °F 1020.9 in NNE 9.3 mph 14.8 mph 78 % 0.0 in
19:46 1.2 °F -2.0 °F 1019.9 in North 11.9 mph 11.9 mph 78 % 0.0 in
19:51 1.0 °F -2.0 °F 1019.9 in North 11.9 mph 11.9 mph 79 % 0.0 in
19:56 0.9 °F -2.0 °F 1019.9 in NNE 12.2 mph 12.2 mph 81 % 0.0 in
20:01 0.8 °F -2.0 °F 1019.9 in NNE 12.2 mph 12.2 mph 81 % 0.0 in
20:06 0.7 °F -2.0 °F 1019.9 in NNE 12.2 mph 12.2 mph 82 % 0.0 in
20:11 0.9 °F -1.0 °F 1019.9 in NNE 12.2 mph 12.2 mph 84 % 0.0 in
20:16 0.9 °F -1.0 °F 1019.9 in NNE 12.2 mph 12.2 mph 84 % 0.0 in
20:21 0.8 °F -1.0 °F 1019.9 in NNE 12.2 mph 12.2 mph 84 % 0.0 in
20:26 0.8 °F -1.0 °F 1019.9 in NE 10.5 mph 10.5 mph 84 % 0.0 in
20:31 0.8 °F -1.0 °F 1019.9 in NE 10.5 mph 10.5 mph 85 % 0.0 in
20:36 0.8 °F -1.0 °F 1019.9 in NE 10.5 mph 10.5 mph 85 % 0.0 in
20:41 0.8 °F -1.0 °F 1019.9 in NE 10.5 mph 10.5 mph 86 % 0.0 in
20:46 0.8 °F -1.0 °F 1019.9 in NE 10.5 mph 10.5 mph 86 % 0.0 in
20:51 0.8 °F -1.0 °F 1019.9 in NE 10.5 mph 10.5 mph 86 % 0.0 in
20:56 0.8 °F -1.0 °F 1019.9 in NE 10.5 mph 10.5 mph 87 % 0.0 in
21:01 0.8 °F -1.0 °F 1019.9 in NE 10.5 mph 10.5 mph 87 % 0.0 in
21:06 0.8 °F -1.0 °F 1019.9 in NNE 15.4 mph 15.4 mph 87 % 0.0 in
21:11 0.8 °F -1.0 °F 1019.9 in NNE 15.4 mph 15.4 mph 87 % 0.0 in
21:16 0.8 °F -1.0 °F 1019.9 in NNE 11.9 mph 15.4 mph 87 % 0.0 in
21:21 0.7 °F -1.0 °F 1019.9 in NNE 11.9 mph 15.4 mph 87 % 0.0 in
21:26 0.7 °F -1.0 °F 1019.9 in NNE 11.9 mph 11.9 mph 87 % 0.0 in
21:31 0.7 °F -1.0 °F 1019.9 in NE 8.7 mph 11.9 mph 87 % 0.0 in
21:37 0.6 °F -1.0 °F 1019.9 in NE 10.5 mph 11.9 mph 87 % 0.0 in
21:42 0.6 °F -1.0 °F 1019.9 in NE 10.5 mph 10.5 mph 88 % 0.0 in
21:47 0.5 °F -1.0 °F 1019.9 in NE 10.5 mph 10.5 mph 88 % 0.0 in
21:52 0.5 °F -1.0 °F 1019.9 in NE 10.5 mph 10.5 mph 88 % 0.0 in
21:57 0.5 °F -1.0 °F 1019.9 in NE 10.5 mph 10.5 mph 88 % 0.0 in
22:02 0.5 °F -1.0 °F 1018.8 in NE 10.5 mph 10.5 mph 89 % 0.0 in
22:07 0.5 °F -1.0 °F 1018.8 in NE 10.5 mph 10.5 mph 89 % 0.0 in
22:12 0.5 °F -1.0 °F 1018.8 in NE 10.5 mph 10.5 mph 89 % 0.0 in
22:17 0.5 °F -1.0 °F 1018.8 in NE 10.5 mph 10.5 mph 89 % 0.0 in
22:22 0.5 °F -1.0 °F 1018.8 in NE 10.1 mph 12.2 mph 90 % 0.0 in
22:27 0.5 °F -1.0 °F 1018.8 in NE 11.9 mph 13.0 mph 90 % 0.0 in
22:32 0.5 °F -1.0 °F 1018.8 in NE 11.9 mph 13.0 mph 90 % 0.0 in
22:37 0.6 °F -1.0 °F 1018.8 in NE 11.9 mph 11.9 mph 90 % 0.0 in
22:43 0.5 °F -1.0 °F 1018.8 in NE 13.7 mph 13.7 mph 90 % 0.0 in
22:48 0.5 °F -1.0 °F 1018.8 in NE 12.2 mph 13.7 mph 90 % 0.0 in
22:53 0.5 °F -1.0 °F 1018.8 in NE 12.6 mph 13.7 mph 90 % 0.0 in
22:58 0.5 °F -1.0 °F 1018.8 in NE 10.1 mph 16.6 mph 90 % 0.0 in
23:03 0.4 °F -1.0 °F 1018.2 in ENE 14.0 mph 20.9 mph 90 % 0.0 in
23:08 0.4 °F -1.0 °F 1018.2 in NE 15.8 mph 20.9 mph 90 % 0.0 in
23:13 0.4 °F -1.0 °F 1018.2 in NE 12.6 mph 20.9 mph 90 % 0.0 in
23:18 0.3 °F -1.0 °F 1018.8 in NE 10.5 mph 20.9 mph 90 % 0.0 in
23:23 0.3 °F -1.0 °F 1018.8 in NNE 13.7 mph 16.9 mph 90 % 0.0 in
23:28 0.3 °F -1.0 °F 1018.8 in NNE 13.7 mph 16.9 mph 90 % 0.0 in
23:33 0.3 °F -1.0 °F 1018.8 in NE 13.0 mph 14.3 mph 90 % 0.0 in
23:38 0.3 °F -1.0 °F 1018.8 in NE 12.6 mph 14.3 mph 90 % 0.0 in
23:43 0.2 °F -1.0 °F 1018.8 in NE 12.2 mph 16.6 mph 90 % 0.0 in
23:48 0.2 °F -1.0 °F 1018.8 in NE 10.5 mph 16.6 mph 90 % 0.0 in
23:53 0.2 °F -1.0 °F 1018.8 in NE 10.5 mph 19.8 mph 90 % 0.0 in
23:59 0.2 °F -1.0 °F 1018.8 in NE 12.6 mph 19.8 mph 90 % 0.0 in
Le Gheer Warneton
Courtoisie de Weather Underground - 2.25 mb

Mise a jour : 17/02/2018 20:37:11
Généré par Cumulus 1.9.4 (1099)